Terminal Aerodrome Forecast
Issued by NWS Mobile, AL

Home | Current Version | Previous Version | Text Only | Print | Product List | Glossary On
Versions: 1 2 3 4 5 6 7 8 9 10 11 12 13 14 15 16 17 18 19 20 21 22 23 24 25 26 27 28 29
747
FTUS44 KMOB 281722
TAFPNS
TAF
KPNS 281722Z 2818/2918 19011KT P6SM VCTS FEW029CB
     FM290300 22004KT P6SM SCT250
     FM291500 26005KT P6SM SCT250=

USA.gov is the U.S. government's official web portal to all federal, state and local government web resources and services.